Grand Rapids, MN

9:52 AM CST on February 22, 2018 (GMT -0600)
Grand Rapids-Itasca County-Newstrom Field

Weather History for KGPZ - December, 2014

Change the Weather History Date:

Saturday, December 6, 2014

  Actual Average Record
Temperature  
Mean Temperature 14 °F -  
Max Temperature 26 °F 24 °F 58 °F (1939)
Min Temperature 1 °F 5 °F -24 °F (1926)
Degree Days  
Heating Degree Days 52    
Moisture  
Dew Point 6 °F    
Average Humidity 69    
Maximum Humidity 92    
Minimum Humidity 46    
Precipitation  
Precipitation 0.00 in - - ()
Sea Level Pressure  
Sea Level Pressure 30.53 in    
Wind  
Wind Speed 5 mph (SSE)    
Max Wind Speed 14 mph    
Max Gust Speed 20 mph    
Visibility 10 miles    
Events      
Averages and records for this station are not official NWS values.
T = Trace of Precipitation, MM = Missing Value Source: NWS Daily Summary

Daily Weather History Graph

Daily Weather History Graph

Search for Another Location

Airport or City:

Trip Planner

Search our weather history database for the weather conditions in past years. The results will help you decide how hot, cold, wet, or windy it might be!

Date:

Astronomy

Dec. 06, 2014 Rise Set
Actual Time 7:45 AM CST 4:24 PM CST
Civil Twilight 7:10 AM CST 4:59 PM CST
Nautical Twilight 6:31 AM CST 5:38 PM CST
Astronomical Twilight 5:54 AM CST 6:15 PM CST
Moon 5:05 PM CST (12/6) 7:32 AM CST (12/6)
Length of Visible Light 9h 49m
Length of Day
8h 38m
Full, 100% of the Moon is Illuminated
Dec 6
Full
Dec 14
Last Quarter
Dec 21
New
Dec 28
First Quarter
Jan 4
Full

Hourly Weather History & Observations

Time (CST) Temp. Windchill Dew Point Humidity Pressure Visibility Wind Dir Wind Speed Gust Speed Precip Events Conditions
12:15 AM 12.2 °F 0.7 °F 8.6 °F 85% 30.44 in 10.0 mi NNW 8.1 mph - N/A   Clear
12:35 AM 12.2 °F 0.7 °F 8.6 °F 85% 30.44 in 10.0 mi NNW 8.1 mph - N/A   Clear
12:55 AM 10.4 °F -0.4 °F 6.8 °F 85% 30.45 in 10.0 mi NNW 6.9 mph - N/A   Clear
1:15 AM 10.4 °F -0.4 °F 6.8 °F 85% 30.46 in 10.0 mi NNW 6.9 mph - N/A   Clear
1:35 AM 8.6 °F -2.6 °F 5.0 °F 85% 30.47 in 10.0 mi NNW 6.9 mph - N/A   Clear
1:55 AM 8.6 °F -2.6 °F 6.8 °F 92% 30.48 in 10.0 mi NNW 6.9 mph - N/A   Clear
2:15 AM 8.6 °F -3.7 °F 6.8 °F 92% 30.48 in 10.0 mi NNW 8.1 mph - N/A   Clear
2:35 AM 8.6 °F -3.7 °F 5.0 °F 85% 30.49 in 10.0 mi NNW 8.1 mph - N/A   Clear
2:55 AM 8.6 °F -3.7 °F 5.0 °F 85% 30.50 in 10.0 mi NNW 8.1 mph - N/A   Clear
3:15 AM 6.8 °F -5.9 °F 3.2 °F 85% 30.50 in 10.0 mi NNW 8.1 mph - N/A   Clear
3:35 AM 6.8 °F -4.8 °F 3.2 °F 85% 30.50 in 10.0 mi NNW 6.9 mph - N/A   Clear
3:55 AM 6.8 °F -3.5 °F 3.2 °F 85% 30.51 in 10.0 mi NNW 5.8 mph - N/A   Clear
4:15 AM 6.8 °F -2.0 °F 3.2 °F 85% 30.52 in 10.0 mi North 4.6 mph - N/A   Clear
4:35 AM 6.8 °F -3.5 °F 3.2 °F 85% 30.52 in 10.0 mi North 5.8 mph - N/A   Clear
4:55 AM 5.0 °F -2.1 °F 1.4 °F 85% 30.52 in 10.0 mi NNW 3.5 mph - N/A   Clear
5:15 AM 5.0 °F - 3.2 °F 92% 30.52 in 10.0 mi Calm Calm - N/A   Clear
5:35 AM 5.0 °F - 3.2 °F 92% 30.53 in 10.0 mi Calm Calm - N/A   Clear
5:55 AM 3.2 °F - -2.2 °F 78% 30.53 in 10.0 mi Calm Calm - N/A   Clear
6:15 AM 3.2 °F - -0.4 °F 85% 30.54 in 10.0 mi Calm Calm - N/A   Clear
6:35 AM 3.2 °F -4.2 °F 1.4 °F 92% 30.55 in 10.0 mi NNW 3.5 mph - N/A   Clear
6:55 AM 3.2 °F - -0.4 °F 85% 30.54 in 10.0 mi Calm Calm - N/A   Clear
7:15 AM 1.4 °F - -2.2 °F 85% 30.54 in 10.0 mi Calm Calm - N/A   Clear
7:35 AM 3.2 °F - 1.4 °F 92% 30.55 in 10.0 mi Calm Calm - N/A   Clear
7:55 AM 1.4 °F - -2.2 °F 85% 30.56 in 10.0 mi Calm Calm - N/A   Clear
8:15 AM 1.4 °F - -0.4 °F 92% 30.56 in 10.0 mi Calm Calm - N/A   Clear
8:35 AM 1.4 °F - -2.2 °F 85% 30.57 in 10.0 mi Calm Calm - N/A   Clear
8:55 AM 1.4 °F - -0.4 °F 92% 30.57 in 10.0 mi Calm Calm - N/A   Clear
9:15 AM 3.2 °F - 1.4 °F 92% 30.59 in 10.0 mi Calm Calm - N/A   Clear
9:35 AM 6.8 °F - 5.0 °F 92% 30.59 in 10.0 mi Calm Calm - N/A   Clear
9:55 AM 8.6 °F - 5.0 °F 85% 30.59 in 10.0 mi Calm Calm - N/A   Clear
10:15 AM 8.6 °F - 6.8 °F 92% 30.60 in 10.0 mi Calm Calm - N/A   Clear
10:35 AM 10.4 °F - 6.8 °F 85% 30.61 in 10.0 mi Calm Calm - N/A   Clear
10:55 AM 10.4 °F - 6.8 °F 85% 30.60 in 10.0 mi Calm Calm - N/A   Clear
11:15 AM 12.2 °F 1.7 °F 6.8 °F 79% 30.59 in 10.0 mi SSE 6.9 mph - N/A   Clear
11:35 AM 12.2 °F 4.3 °F 6.8 °F 79% 30.59 in 10.0 mi South 4.6 mph - N/A   Clear
11:55 AM 14.0 °F 8.2 °F 6.8 °F 73% 30.59 in 10.0 mi SSE 3.5 mph - N/A   Clear
12:15 PM 15.8 °F - 8.6 °F 73% 30.59 in 10.0 mi Calm Calm - N/A   Clear
12:35 PM 17.6 °F - 3.2 °F 53% 30.59 in 10.0 mi Calm Calm - N/A   Clear
12:55 PM 17.6 °F 10.7 °F 6.8 °F 63% 30.59 in 10.0 mi South 4.6 mph - N/A   Clear
1:15 PM 19.4 °F 10.4 °F 3.2 °F 49% 30.58 in 10.0 mi SSE 6.9 mph - N/A   Clear
1:35 PM 19.4 °F 12.8 °F 6.8 °F 58% 30.57 in 10.0 mi SSE 4.6 mph - N/A   Mostly Cloudy
1:55 PM 21.2 °F 14.9 °F 6.8 °F 54% 30.57 in 10.0 mi SE 4.6 mph - N/A   Overcast
2:15 PM 21.2 °F 14.9 °F 6.8 °F 54% 30.56 in 10.0 mi SSE 4.6 mph - N/A   Overcast
2:35 PM 23.0 °F 14.7 °F 6.8 °F 50% 30.56 in 10.0 mi South 6.9 mph - N/A   Overcast
2:55 PM 23.0 °F 14.7 °F 6.8 °F 50% 30.56 in 10.0 mi SSE 6.9 mph - N/A   Overcast
3:15 PM 23.0 °F 18.4 °F 6.8 °F 50% 30.56 in 10.0 mi SE 3.5 mph - N/A   Mostly Cloudy
3:35 PM 24.8 °F 19.1 °F 6.8 °F 46% 30.56 in 10.0 mi SSE 4.6 mph - N/A   Overcast
3:55 PM 24.8 °F 17.9 °F 6.8 °F 46% 30.56 in 10.0 mi SSE 5.8 mph - N/A   Overcast
4:15 PM 24.8 °F 19.1 °F 6.8 °F 46% 30.55 in 10.0 mi SE 4.6 mph - N/A   Overcast
4:35 PM 24.8 °F 19.1 °F 6.8 °F 46% 30.55 in 10.0 mi SE 4.6 mph - N/A   Overcast
4:55 PM 24.8 °F 19.1 °F 6.8 °F 46% 30.55 in 10.0 mi SSE 4.6 mph - N/A   Overcast
5:15 PM 24.8 °F 19.1 °F 8.6 °F 50% 30.55 in 10.0 mi SE 4.6 mph - N/A   Overcast
5:35 PM 24.8 °F 17.9 °F 8.6 °F 50% 30.54 in 10.0 mi SSE 5.8 mph - N/A   Overcast
5:55 PM 24.8 °F 16.1 °F 8.6 °F 50% 30.53 in 10.0 mi SSE 8.1 mph - N/A   Overcast
6:15 PM 24.8 °F 17.9 °F 8.6 °F 50% 30.53 in 10.0 mi SSE 5.8 mph - N/A   Overcast
6:35 PM 24.8 °F 20.5 °F 8.6 °F 50% 30.52 in 10.0 mi SE 3.5 mph - N/A   Overcast
6:55 PM 24.8 °F 17.9 °F 8.6 °F 50% 30.52 in 10.0 mi SSE 5.8 mph - N/A   Overcast
7:15 PM 24.8 °F 16.9 °F 8.6 °F 50% 30.52 in 10.0 mi SSE 6.9 mph - N/A   Overcast
7:35 PM 24.8 °F 15.3 °F 8.6 °F 50% 30.51 in 10.0 mi SSE 9.2 mph - N/A   Overcast
7:55 PM 24.8 °F 16.9 °F 8.6 °F 50% 30.51 in 10.0 mi SSE 6.9 mph - N/A   Overcast
8:15 PM 24.8 °F 16.1 °F 10.4 °F 54% 30.50 in 10.0 mi South 8.1 mph - N/A   Overcast
8:35 PM 24.8 °F 14.6 °F 10.4 °F 54% 30.49 in 10.0 mi SSE 10.4 mph - N/A   Overcast
8:55 PM 26.6 °F 15.2 °F 10.4 °F 51% 30.48 in 10.0 mi SSE 13.8 mph - N/A   Overcast
9:15 PM 26.6 °F 15.2 °F 10.4 °F 51% 30.47 in 10.0 mi SSE 13.8 mph - N/A   Overcast
9:35 PM 26.6 °F 15.7 °F 10.4 °F 51% 30.47 in 10.0 mi SSE 12.7 mph 19.6 mph N/A   Overcast
9:55 PM 26.6 °F 15.7 °F 10.4 °F 51% 30.46 in 10.0 mi SSE 12.7 mph 19.6 mph N/A   Overcast
10:15 PM 26.6 °F 18.2 °F 10.4 °F 51% 30.47 in 10.0 mi SSE 8.1 mph - N/A   Overcast
10:35 PM 26.6 °F 17.5 °F 10.4 °F 51% 30.46 in 10.0 mi SSE 9.2 mph - N/A   Overcast
10:55 PM 26.6 °F 17.5 °F 12.2 °F 55% 30.46 in 10.0 mi SSE 9.2 mph - N/A   Overcast
11:15 PM 26.6 °F 16.8 °F 12.2 °F 55% 30.44 in 10.0 mi SSE 10.4 mph 16.1 mph N/A   Overcast
11:35 PM 26.6 °F 16.8 °F 12.2 °F 55% 30.44 in 10.0 mi SSE 10.4 mph - N/A   Overcast
11:55 PM 26.6 °F 16.2 °F 12.2 °F 55% 30.43 in 10.0 mi SSE 11.5 mph - N/A   Overcast